Overview Statistics Trail Chart Weather Telemetry Raw packets
 

This is the latest recevied weather packets stored in our database for station/object VO2AGO. If no packets are shown the sender has not sent any weather packets the latest 10 day(s).

<< 72 73 74 75 76 >>
Time Temp. Humidity Pressure Rain* Wind** Luminosity Snow
1777303252 18.89° C 36% 102.5 hPa 0 mm 0 m/s 1855 W/m² -
1777302802 21.11° C 33% 102.5 hPa 0 mm 0 m/s 1853 W/m² -
1777302352 20° C 33% 102.5 hPa 0 mm 0 m/s 1862 W/m² -
1777301902 18.33° C 36% 102.5 hPa 0 mm 0 m/s 1901 W/m² -
1777301452 16.67° C 37% 102.5 hPa 0 mm 0 m/s 1936 W/m² -
1777301003 18.89° C 34% 102.5 hPa 0 mm 0 m/s 1970 W/m² -
1777300552 17.78° C 35% 102.5 hPa 0 mm 0 m/s 1989 W/m² -
1777300102 18.33° C - - - 0 m/s 1103 W/m² -
1777299652 18.89° C - - - 0 m/s 1105 W/m² -
1777299202 19.44° C - - - 0 m/s 1123 W/m² -
1777298752 18.33° C - - - 0 m/s 1115 W/m² -
1777298302 17.22° C - - - 0 m/s 1116 W/m² -
1777297852 15.56° C - - - 0 m/s 1121 W/m² -
1777297402 16.67° C - - - 0 m/s 1113 W/m² -
1777296952 19.44° C - - - 0 m/s 1114 W/m² -
1777296502 19.44° C - - - 0 m/s 1102 W/m² -
1777296052 17.78° C 40% 102.6 hPa 0 mm 0 m/s 1986 W/m² -
1777295602 16.67° C 48% 102.6 hPa 0 mm 0 m/s 1948 W/m² -
1777295152 13.89° C 50% 102.6 hPa 0 mm 0 m/s 1823 W/m² -
1777294702 11.67° C 54% 102.6 hPa 0 mm 0 m/s 1735 W/m² -
1777294252 10.56° C 57% 102.6 hPa 0 mm 0 m/s 1630 W/m² -
1777293803 8.89° C 55% 102.6 hPa 0 mm 0 m/s 1515 W/m² -
1777293352 9.44° C 56% 102.6 hPa 0 mm 0 m/s 1545 W/m² -
1777292902 9.44° C 71% 102.6 hPa 0 mm 0 m/s 1488 W/m² -
1777292453 8.33° C 75% 102.6 hPa 0 mm 0 m/s 1353 W/m² -

* Rain latest hour (hover to see other rain measurements)
** Current wind speed in m/s (hover to see current wind gust speed)